Starlink 5754

operational
NORAD ID: 55579 Int'l Des: 2023-020 Owner: SPXS Country: US Constellation: starlink
LEOCIRCULAR

About Starlink 5754

Description loading...

Live Position

Loading 3D Globe...

Upcoming Passes

Altitude History

Altitude vs Time

uPlot chart will show altitude changes over time

Two-Line Element Set

1 55579U 23020L 25344.76493148 .00000246 00000-0 33293-4 0 9994
2 55579 43.0022 127.7520 0001279 277.3622 82.7075 15.02523106155540
Epoch: Dec 10, 2025 • Age: 11 hours

Current Status

Altitude 569.5 km
Velocity 7.58 km/s
Sub-Earth Point -38.11°S, 90.29°W
Launch Date Feb 12, 2023
Age 2.8 years
Type internet

Technical Details

Classification Payload
Mass 305.00 kg
Dry Mass 290.00 kg
Total Mass 305.00 kg
Length 0.20 m
Diameter 2.80 m
Span 9.00 m
Shape Box + pan
Manufacturer SPXS
Bus Type Starlink
Phase Status In Orbit
Owner/State SPXS/US

Large Constellations

Loading constellations...